Weather History for Opa Locka, FL

Change the Weather History Date:

Monday, February 17, 2014

  Actual Average Record
Temperature  
Mean Temperature 68 °F -  
Max Temperature 78 °F 77 °F 86 °F (1952)
Min Temperature 59 °F 59 °F 40 °F (1958)
Cooling Degree Days 4    
Growing Degree Days 18 (Base 50)    
Moisture  
Dew Point 57 °F    
Average Humidity 70    
Maximum Humidity 93    
Minimum Humidity 50    
Precipitation  
Precipitation 0.00 in - - ()
Sea Level Pressure  
Sea Level Pressure 30.19 in    
Wind  
Wind Speed 4 mph (ENE)    
Max Wind Speed 13 mph    
Max Gust Speed 20 mph    
Visibility 10 miles    
Events      
Averages and records for this station are not official NWS values.
T = Trace of Precipitation, MM = Missing Value Source: NWS Daily Summary

Daily Weather History Graph

Daily Weather History Graph

Search for Another Location

Airport:

Trip Planner

Search our weather history database for the weather conditions in past years. The results will help you decide how hot, cold, wet, or windy it might be!

Date:

Astronomy

Feb. 17, 2014 Rise Set
Actual Time 6:54 AM EST 6:15 PM EST
Civil Twilight 6:31 AM EST 6:39 PM EST
Nautical Twilight 6:04 AM EST 7:06 PM EST
Astronomical Twilight 5:37 AM EST 7:33 PM EST
Moon 8:47 PM EST (2/17) 8:13 AM EST (2/17)
Length of Visible Light 12h 07m
Length of Day
11h 20m
Waning Gibbous, 93% of the Moon is Illuminated
Feb 17
Waning Gibbous
Feb 22
Last Quarter
Mar 1
New
Mar 8
First Quarter
Mar 16
Full

Hourly Weather History & Observations

Time (EST) Temp. Dew Point Humidity Pressure Visibility Wind Dir Wind Speed Gust Speed Precip Events Conditions
12:53 AM 61.0 °F 57.0 °F 87% 30.17 in 10.0 mi Calm Calm - N/A   Clear
1:53 AM 61.0 °F 57.0 °F 87% 30.17 in 10.0 mi Calm Calm - N/A   Clear
2:53 AM 60.1 °F 55.9 °F 86% 30.15 in 10.0 mi Calm Calm - N/A   Clear
3:53 AM 59.0 °F 55.9 °F 90% 30.15 in 10.0 mi Calm Calm - N/A   Clear
4:53 AM 60.1 °F 57.0 °F 90% 30.16 in 10.0 mi Calm Calm - N/A   Clear
5:53 AM 59.0 °F 57.0 °F 93% 30.17 in 10.0 mi Calm Calm - N/A   Clear
6:53 AM 59.0 °F 55.9 °F 90% 30.19 in 10.0 mi Calm Calm - N/A   Clear
7:53 AM 63.0 °F 57.0 °F 81% 30.21 in 10.0 mi North 6.9 mph - N/A   Clear
8:53 AM 70.0 °F 59.0 °F 68% 30.23 in 10.0 mi NNE 5.8 mph - N/A   Clear
9:53 AM 75.0 °F 57.9 °F 55% 30.23 in 10.0 mi NE 9.2 mph - N/A   Clear
10:53 AM 77.0 °F 57.0 °F 50% 30.22 in 10.0 mi East 10.4 mph - N/A   Clear
11:53 AM 77.0 °F 57.0 °F 50% 30.22 in 10.0 mi NE 9.2 mph - N/A   Clear
12:53 PM 78.1 °F 57.9 °F 50% 30.19 in 10.0 mi ENE 10.4 mph - N/A   Partly Cloudy
1:53 PM 77.0 °F 57.0 °F 50% 30.17 in 10.0 mi East 8.1 mph - N/A   Scattered Clouds
2:53 PM 77.0 °F 57.9 °F 52% 30.17 in 10.0 mi East 12.7 mph - N/A   Scattered Clouds
3:53 PM 75.9 °F 57.9 °F 54% 30.16 in 10.0 mi East 12.7 mph 19.6 mph N/A   Partly Cloudy
4:53 PM 73.9 °F 57.0 °F 55% 30.17 in 10.0 mi East 11.5 mph - N/A   Partly Cloudy
5:53 PM 72.0 °F 55.9 °F 57% 30.19 in 10.0 mi ENE 9.2 mph - N/A   Clear
6:53 PM 69.1 °F 57.0 °F 65% 30.20 in 10.0 mi ENE 5.8 mph - N/A   Clear
7:53 PM 69.1 °F 57.0 °F 65% 30.21 in 10.0 mi ENE 5.8 mph - N/A   Clear
8:53 PM 66.0 °F 57.0 °F 73% 30.21 in 10.0 mi ENE 4.6 mph - N/A   Clear
9:53 PM 66.0 °F 57.0 °F 73% 30.22 in 10.0 mi NE 3.5 mph - N/A   Clear
10:53 PM 64.9 °F 57.0 °F 75% 30.22 in 10.0 mi Calm Calm - N/A   Clear
11:53 PM 64.0 °F 57.9 °F 80% 30.20 in 10.0 mi Calm Calm - N/A   Clear